(703) Catalina Sky Survey  (N32.417006 W110.732640)  US/Arizona.  Observers
   G. J. Leonard, B. M. Africano, H. Groeller. Measurers B. M. Africano, E.
   J. Christensen, D. C. Fuls, A. R. Gibbs, A. D. Grauer, H. Groeller, J. A.
   Johnson, R. A. Kowalski, S. M. Larson, G. J. Leonard, R. L. Seaman, F. C.
   Shelly. 0.68-m Schmidt + 10K CCD.
(970) Chelmsford  (N51.744716 E0.495400)  UK.  Observer N. James. 0.28-m f/10
   Schmidt-Cassegrain + CCD.
(C42) Xingming Observatory,  Mt. Nanshan  (N43.471021 E87.177800)  China.
   Observers H. Tan, X. Gao, P. Sun. Measurers Z. Xu, P. Sun, M.-T. Hui.
   0.5-m f/4 reflector + CCD.
(C95) SATINO Remote Observatory, Haute Provence  (N43.932042 E5.712390)
   France.  Observer J. Jahn. 0.60-m f/3.2 Newton + CCD, 0.60-m f/3.2
   Newtonian reflector + CCD.
(G34) Oberfrauendorf  (N50.860063 E13.701500)  Germany.  Observer T. Felber.
   0.25-m f/6, 3 Schmidt-Cassegrain + CCD.
(J95) Great Shefford  (N51.474969 W1.447003)  UK.  Observer P. Birtwhistle.
   0.40-m f/6.0 Schmidt-Cassegrain + CCD.
(T08) ATLAS-MLO, Mauna Loa  (N19.535772 W155.576400)  US/Hawaii.

Orbital elements:  2018-045D = NORAD 43473 = Queqiao booster
   Perigee 2018 Sep 25.444960 +/- 6.56e-6 TT = 10:40:44 (JD 2458386.944960)
Epoch 2018 Sep 25.4 TT; AMR 0.006652 +/- 3.47e-5 m2/kg       Gray
M 358.496866 +/- 0.00021            (J2000 equator)
n  33.433043967 +/- 1e-5            Peri.  193.755172 +/- 0.000043
a205977.3943 +/- 0.0411             Node   177.268193 +/- 0.00008
e   0.97313042 +/- 1.89e-7          Incl.   21.455752 +/- 0.00025
P  10.77d                  H 28.5   G  0.15   U  5.0
q 5534.524442 +/- 0.0396    Q 406420.2641 +/- 0.07
45 of 101 observations 2018 June 22-Sept. 1; mean residual 0".823
IMPACT at 25 Sep 2018 10:32:59.45 lat +10.80220 lon E166.48402
Residuals in arcseconds: 
180521 703( 129-  207-)   180527 J95(.093+ 2.44-)   180623 C95 .206- .126-
180521 703( 129-  206-)   180602 J95(2.78- 1.78-)   180623 C95 .167- .138-
180521 703( 127-  203-)   180602 J95(2.76- 1.51-)   180623 C95 .623- .199-
180521 703( 124-  199-)   180602 J95(3.17- 1.45-)   180623 C95 .743- .408-
180521 J95(36.5- 71.2-)   180605 C95(3.00- .429-)   180623 C95 .202+ .672+
180521 J95(36.7- 70.8-)   180605 C95(2.78- .464-)   180623 C95 .728- .060-
180521 J95(36.6- 70.9-)   180605 C95(2.88- .263-)   180623 C95 1.48- .103-
180521 J95(36.6- 70.7-)   180605 C95(2.12- .732-)   180623 C95 1.07- .522-
180522 T08(26.7- 46.9-)   180605 C95(2.24- .453-)   180623 C95 1.13- 1.00-
180522 T08(26.4- 46.3-)   180605 C95(2.26- .833-)   180623 C95 1.05- .500-
180522 T08(26.4- 45.6-)   180605 C95(2.03- .306-)   180623 C95 .967- .024-
180522 T08(26.5- 45.7-)   180610 G34(12.5- 1.23-)   180623 C95 1.81- .209-
180522 C42(20.8- 36.2-)   180610 G34(12.4- 1.28-)   180623 C95 1.76- .110-
180522 C42(20.9- 36.1-)   180610 G34(12.0- 1.47-)   180623 C95 1.42- .173+
180522 C42(21.2- 35.5-)   180610 G34(12.5- 1.80-)   180703 703 .128- .302-
180522 C42(21.0- 36.0-)   180610 G34(11.9- 1.68-)   180703 703 .258- .108-
180522 C42(20.9- 36.1-)   180610 G34(12.1- 1.51-)   180703 703 .076- .306-
180522 C42(20.7- 36.0-)   180610 G34(12.8- 1.60-)   180703 703 .043- .399-
180522 C42(21.1- 35.0-)   180618 703(2.86- 1.32-)   180714 C95 .409+ .073+
180522 C42(21.4- 35.6-)   180618 703(2.68- .521-)   180714 C95 .285+ .025+
180522 C42(20.9- 35.5-)   180618 703(2.44- 1.96-)   180714 C95 .117- .233-
180522 C42(21.1- 35.7-)   180618 703(1.94- 1.12-)   180714 C95 .185- .055-
180522 J95(18.1- 30.5-)   180622 J95 .049- .060-    180901 970 4.57- .922-
180522 J95(18.5- 30.5-)   180622 J95 .129+ .083-    180901 970 1.87+ .683+
180522 J95(18.6- 30.6-)   180622 J95 .030+ .061+    180901 970 2.62- .070-
180522 J95(18.4- 30.3-)   180622 J95 .075- .264+    180901 970 1.48- .418-
180523 C95(9.26- 13.0-)   180623 C95 .250- .132-    180901 J95 .733- .272-
180523 C95(9.16- 13.0-)   180623 C95 1.10+ .300+    180901 J95 .314+ .196+
180523 C95(9.09- 12.9-)   180623 C95 .579+ .197+    180901 J95 .157- .563+
180523 C95(8.78- 12.6-)   180623 C95 .503- .244-    180901 J95 .954+ .211-
180523 C95(9.05- 12.8-)   180623 C95 .710+ .281-    180901 J95 .139- .118+
180523 C95(8.82- 12.6-)   180623 C95 .781+ .139+    180901 J95 .206+ .060+
180527 J95(.277+ 2.78-)   180623 C95 .773+ .258+    180901 J95 .134+ .162-
180527 J95(.101- 2.59-)   180623 C95 .237- .140+

Ephemerides (geocentric):
Date (UTC) HH   RA              Dec         delta  elong  mag " sig PA
---- -- -- --  -------------   -----------  ------ -----  --- ---- ---
2018 07 15 00  14 10 06.000   +05 53 48.69  169794  95.7 16.7 .234  78
2018 07 15 04  14 22 27.692   +07 03 55.83  145881  97.9 16.3 .334  74
2018 07 15 08  14 40 13.291   +08 41 53.05  118680 101.1 15.7 .537  72
2018 07 15 12  15 10 18.998   +11 18 39.17   86682 106.6 14.9 1.08  71
2018 07 15 16  16 28 26.743   +16 55 09.91   46256 119.6 13.1 4.09  75
2018 07 15 20  06 29 19.940   -21 28 27.86   24086  46.2 15?? 16.3  94
2018 07 16 00  09 40 48.976   -17 33 00.96   70638  48.9 17?? 2.04  81
2018 07 16 04  10 24 15.867   -14 48 57.70  105591  54.0 18?? .970  82
2018 07 16 08  10 46 46.317   -13 09 33.70  134622  57.1 18?? .632  85
2018 07 16 12  11 01 30.278   -11 59 30.11  159853  59.2 18?? .472  88
2018 07 16 16  11 12 18.599   -11 05 39.45  182322  60.8 18.7 .381  90
2018 07 16 20  11 20 47.342   -10 21 54.56  202633  62.0 18.8 .323  93
2018 07 17 00  11 27 44.869   -09 44 56.67  221180  63.0 18.9 .282  96
2018 07 17 04  11 33 38.668   -09 12 46.34  238237  63.9 19.1 .253  98
2018 07 17 08  11 38 45.762   -08 44 05.82  254007  64.6 19.1 .230 100
2018 07 17 12  11 43 17.405   -08 18 01.02  268647  65.2 19.2 .212 102
2018 07 17 16  11 47 21.462   -07 53 52.07  282282  65.8 19.3 .197 103
2018 07 17 20  11 51 03.718   -07 31 07.95  295014  66.3 19.4 .185 105
2018 07 18 00  11 54 28.681   -07 09 23.71  306930  66.7 19.4 .174 106
2018 07 18 04  11 57 40.066   -06 48 19.30  318102  67.1 19.5 .165 107
2018 07 18 08  12 00 41.079   -06 27 39.91  328589  67.4 19.5 .157 108
2018 07 18 12  12 03 34.483   -06 07 17.12  338435  67.8 19.6 .149 108
2018 07 18 16  12 06 22.482   -05 47 09.45  347672  68.1 19.6 .143 108
2018 07 18 20  12 09 06.577   -05 27 20.74  356317  68.4 19.6 .137 108
2018 07 19 00  12 11 47.585   -05 07 56.83  364384  68.7 19.7 .132 107
2018 07 19 04  12 14 25.836   -04 49 02.53  371886  69.0 19.7 .128 106
2018 07 19 08  12 17 01.423   -04 30 40.32  378838  69.3 19.7 .124 105
2018 07 19 12  12 19 34.370   -04 12 50.46  385253  69.6 19.7 .121 104
2018 07 19 16  12 22 04.726   -03 55 31.63  391146  69.9 19.7 .118 103
2018 07 19 20  12 24 32.583   -03 38 41.64  396533  70.2 19.7 .115 102
2018 07 20 00  12 26 58.078   -03 22 17.84  401427  70.5 19.8 .113 100
2018 07 20 04  12 29 21.385   -03 06 17.51  405839  70.8 19.8 .111  99
2018 07 20 08  12 31 42.699   -02 50 37.89  409782  71.1 19.8 .110  97
2018 07 20 12  12 34 02.229   -02 35 16.38  413263  71.4 19.8 .108  96
2018 07 20 16  12 36 20.194   -02 20 10.48  416292  71.6 19.8 .107  94
2018 07 20 20  12 38 36.817   -02 05 17.86  418876  71.9 19.8 .107  92
2018 07 21 00  12 40 52.324   -01 50 36.32  421020  72.2 19.8 .106  91
2018 07 21 04  12 43 06.938   -01 36 03.76  422730  72.4 19.8 .106  89
2018 07 21 08  12 45 20.887   -01 21 38.20  424010  72.7 19.7 .106  87
2018 07 21 12  12 47 34.398   -01 07 17.74  424863  73.0 19.7 .107  85
2018 07 21 16  12 49 47.698   -00 53 00.55  425290  73.2 19.7 .107  83
2018 07 21 20  12 52 01.019   -00 38 44.82  425295  73.5 19.7 .108  82
2018 07 22 00  12 54 14.598   -00 24 28.79  424876  73.8 19.7 .109  80
2018 07 22 04  12 56 28.677   -00 10 10.69  424035  74.1 19.7 .111  78
2018 07 22 08  12 58 43.506   +00 04 11.24  422769  74.3 19.7 .112  76
2018 07 22 12  13 00 59.346   +00 18 38.80  421077  74.6 19.6 .114  75
2018 07 22 16  13 03 16.471   +00 33 13.87  418956  74.9 19.6 .116  73
2018 07 22 20  13 05 35.173   +00 47 58.35  416403  75.2 19.6 .119  71
2018 07 23 00  13 07 55.762   +01 02 54.28  413413  75.5 19.5 .121  70
2018 07 23 04  13 10 18.573   +01 18 03.81  409980  75.8 19.5 .125  68
2018 07 23 08  13 12 43.971   +01 33 29.23  406098  76.1 19.5 .128  67
2018 07 23 12  13 15 12.353   +01 49 13.03  401760  76.5 19.4 .132  66
2018 07 23 16  13 17 44.162   +02 05 17.93  396956  76.8 19.4 .136  64
2018 07 23 20  13 20 19.889   +02 21 46.93  391677  77.2 19.3 .141  63
2018 07 24 00  13 23 00.085   +02 38 43.35  385910  77.6 19.3 .146  62
2018 07 24 04  13 25 45.376   +02 56 10.94  379642  77.9 19.2 .151  61
2018 07 24 08  13 28 36.477   +03 14 13.91  372859  78.4 19.2 .157  59
2018 07 24 12  13 31 34.214   +03 32 57.11  365544  78.8 19.1 .164  58
2018 07 24 16  13 34 39.548   +03 52 26.11  357675  79.3 19.0 .172  58
2018 07 24 20  13 37 53.610   +04 12 47.41  349233  79.7 19.0 .180  57
2018 07 25 00  13 41 17.745   +04 34 08.67  340190  80.3 18.9 .189  56
2018 07 25 04  13 44 53.572   +04 56 38.99  330517  80.8 18.8 .200  55
2018 07 25 08  13 48 43.064   +05 20 29.35  320181  81.5 18.7 .212  55
2018 07 25 12  13 52 48.660   +05 45 53.14  309141  82.1 18.6 .225  54
2018 07 25 16  13 57 13.425   +06 13 06.97  297353  82.9 18.5 .241  54
2018 07 25 20  14 02 01.280   +06 42 31.73  284760  83.7 18.3 .260  54
2018 07 26 00  14 07 17.344   +07 14 34.22  271297  84.6 18.2 .282  54
2018 07 26 04  14 13 08.473   +07 49 49.59  256886  85.6 18.0 .308  54
2018 07 26 08  14 19 44.111   +08 29 05.03  241428  86.8 17.8 .341  54
2018 07 26 12  14 27 17.738   +09 13 25.89  224802  88.2 17.6 .383  54
2018 07 26 16  14 36 09.441   +10 04 25.90  206849  89.8 17.4 .438  55
2018 07 26 20  14 46 50.854   +11 04 25.56  187363  91.8 17.1 .515  56
2018 07 27 00  15 00 15.540   +12 17 07.28  166059  94.3 16.7 .628  58
2018 07 27 04  15 18 03.736   +13 48 48.47  142528  97.6 16.3 .812  61
2018 07 27 08  15 43 52.736   +15 51 05.72  116145 102.4 15.6 1.15  64
2018 07 27 12  16 27 41.105   +18 46 52.18   85887 110.3 14.7 1.98  70
2018 07 27 16  18 13 03.907   +22 50 48.36   50211 126.8 13.1 5.39  83
